Weather in Butka

Russia / Sverdlovsk Oblast     56°43′09″N   63°47′02″E
temp.,
°C
wind,
m/s
gust,
m/s
humid.,
%
clouds,
%
prec.,
mm/h
press.,
hPa
HPBL,
m
5 august, thu
thu523:00+18se359399 6.1 101393
02:00+17s3109438 1.1 1011199
05:00+17s289592 1.3 1011180
08:00+20sse34855 0.0 1010209
11:00+27s235474 0.0 1009686
14:00+31sse124298 0.0 10081185
17:00+32sse133874 0.0 10071852
20:00+26se22647 0.0 100617
6 august, fri
fri623:00+21nne3889100 1.0 1006160
02:00+19wsw1195100 2.5 100525
05:00+17wnw379931 2.6 1006212
08:00+18nw3594100 0.0 1007481
11:00+21wnw357047 0.1 1007819
14:00+24w445599 0.0 10071519
17:00+23wnw4562100 0.0 10071230
20:00+18nw489137 0.1 1008492
7 august, sat
sat723:00+17nw4997100 0.6 1008513
02:00+16nnw4998100 1.0 1009527
05:00+15nw41197100 1.1 1009506
08:00+15nw41192100 0.0 1010573
11:00+20nw69560 0.0 10101101
14:00+23nw574516 0.0 10101681
17:00+20nne576697 0.0 1010659
20:00+17n41076100 0.0 1011600
8 august, sun
sun823:00+15nw411834 0.0 1011589
02:00+13nw411920 0.0 1012440
05:00+12nw41091100 0.0 1012445
08:00+14nw4108199 0.0 1012546
11:00+12nw41195100 0.7 1013518
14:00+13nw51095100 0.2 1014588
17:00+14nnw41091100 0.2 1015443
20:00+16nnw488650 0.0 1015533
9 august, mon
mon923:00+14nw399814 0.0 1015200
02:00+14nnw31098100 0.0 1015238
05:00+14nnw3109881 0.0 1016250
08:00+18nnw47825 0.0 1017367
11:00+22nnw456220 0.0 1016972
14:00+24nnw4452100 0.0 10161483
17:00+24nnw345299 0.0 10161764
20:00+19nnw2675100 0.0 1017177